STARLINK-34281, 64260

Orbit data source: Space-Track

STARLINK-34281, 64260 is a payload satellite owned by SpaceX/Seattle (US) in LEO that was launched on Wed, 04 Jun 2025 UTC via an FALCON 9 launch vehicle from the Air Force Western Test Range (AFWTR). Payload-class satellites include a variety of spacecraft equipped with specific instruments for various scientific and technological missions. These include communications satellites like Starlink; space stations such as the ISS; scientific satellites like the Hubble; Earth observation satellites from companies like Planet Labs, Umbra, and HawkEye 360; GPS; miniature CubeSats for education and research; and military/defense satellites.

Loading next visibility...
Identifier
64260, 2025-120E
Orbit
LEO
Country
Flag of USUS
Related business
Manufacturer
SpaceX/Seattle
Mission
Operational Commercial Communications
Bus & Motor
STARLINK V2MO, Unknown motor
Mass
575 kg wet, ~530 kg dry
Launch date (UTC)
2025-06-04 (1 year ago)
Launch vehicle
FALCON 9
Launch site
Air Force Western Test Range (AFWTR)
Object type
Payload
Rocket body
Debris
Shape & HBR
Box + 2 Pan, 17.7 m
Radar Cross Section
36.964 m², Large (>1 m²)

Expand to show TLE details & history
Last TLE update: 1 day ago

TLE from 1 day ago
0 STARLINK-34281
1 64260U 25120E   26170.80868761  .00020818  00000-0  62577-3 0  9997
2 64260  53.1586 359.3392 0000913  85.4942 274.6165 15.34390113 59541
Epoch: 2026-06-19T19:24Z
TLE epoch observation values (Epoch: 2026-06-19T19:24:30.609Z)
Latitude
-0.00001°
Longitude
160.17931°
Altitude
463.584 km
Speed
7.636 km/s
True Right ascension
23h 57m 21s
True Declination
0° 00' 00"
Sunlit
Object was in daylight at epoch
Visualization orbit readout
Latitude
Unknown
Longitude
Unknown
Altitude
Unknown
Speed
Unknown
Apparent Right ascension
Unknown
Apparent Declination
Unknown
Sunlit
N/A
Visualization observer readout
Local Sidereal Time
07:13:44
Azimuth
Unknown
Elevation
Unknown
Doppler factor
Unknown
Orbital elements
Apogee altitude
463.614 km
Perigee altitude
462.365 km
Semi-major axis
6,841.127 km
Eccentricity
0.00009
Inclination
53.1586°
RAAN
359.3392°
Arg. of periapsis
85.4942°
True anomaly
274.60607°
Mean anomaly
274.6165°
Eccentric anomaly
274.61129°
Mean motion
3.83576 °/min
Orbital period
93.85 mins
BSTAR
0.00062577
Loading maneuver chart data...
Computing Atmospheric mass density...
Loading historical data...
Loading historical data...
Loading historical data...
Loading historical data...
Loading historical data...
Loading historical data...
Loading historical data...

Documentation

Showing up to 5 results
|